Location: Namasale
(1.5000°N, 32.6167°E)
Time: 22:24:25
(UTC+00:00)

Cosmos 2369 Rocket - Pass Details

Date: 09 April 2020
Orbit: 829 x 852 km, 71.0° (Epoch: 02 June)

Event Time Altitude Azimuth Distance (km) Brightness Sun altitude
Rises 17:12:29 0° 355° (N) 3,377 5.5 -20.0°
Reaches altitude 10° 17:15:00 10° 1° (N) 2,441 4.7 -20.6°
Maximum altitude 17:20:23 48° 75° (ENE) 1,073 2.3 -21.9°
Enters shadow 17:20:52 47° 91° (E) 1,091 2.3 -22.0°
